• Join FlightAware (Why Join?)
  • Login
  • US Flag 
08:57PM EST


 

Airport Tracker/Info


-or-


 

Live Flight TrackerFlight Track Log ✈ TAM3448 ✈ 31-Jul-2013 ✈ SBBE / BEL - SBMQ / MCP

Flight Track Log - Related Links

Times and Time Zones

All times are in EDT time to prevent confusion due to time zone crossing. See the TAM3448 flight status page for this flight to view local times or setup timezone preferences in your user account.

Time Position Orientation Groundspeed Altitude Reporting Facility
EDT Latitude Longitude Course Direction KTS MPH feet Rate Location/Type
10:40PM -1.3810 -48.4780 45° Northeast 130 150  Level FlightAware
10:41PM -1.3690 -48.4650 47° Northeast 162 186 500 1,680 Climbing FlightAware
10:41PM -1.3370 -48.4670 356° North 225 259 1,400 1,667 Climbing FlightAware
10:41PM -1.3330 -48.4740 300° West 246 283 1,500 500 Climbing FlightAware
10:41PM -1.3300 -48.4790 301° West 257 296 1,500 207 Level FlightAware
10:42PM -1.3290 -48.4870 277° West 270 311 1,600 2,681 Climbing FlightAware
10:42PM -1.3320 -48.5390 267° West 284 327 3,600 4,800 Climbing FlightAware
10:42PM -1.3290 -48.5590 279° West 286 329 4,400 3,000 Climbing FlightAware
10:43PM -1.3230 -48.5780 288° West 290 334 5,100 2,833 Climbing FlightAware
10:43PM -1.3120 -48.6030 294° West 292 336 6,100 1,846 Climbing FlightAware
10:43PM -1.3090 -48.6080 301° West 291 335 6,300 1,636 Climbing FlightAware
10:44PM -1.2970 -48.6300 299° West 297 342 7,300 2,750 Climbing FlightAware
10:44PM -1.2780 -48.6640 299° West 301 346 8,500 2,700 Climbing FlightAware
10:44PM -1.2670 -48.6840 299° West 303 349 9,100 2,333 Climbing FlightAware
10:45PM -1.2550 -48.7070 298° West 310 357 9,900 896 Climbing FlightAware
10:46PM -1.2300 -48.7550 298° West 310 357 10,100 209 Climbing FlightAware
10:46PM -1.2350 -48.7440 114° Southeast 310 357 10,200 77 Climbing FlightAware
10:47PM -1.2500 -48.7160 118° Southeast 310 357 10,200  Level FlightAware
10:47PM -1.2280 -48.7600 297° West 310 357 10,200  Level FlightAware
10:48PM -1.2080 -48.7990 297° West 310 357 10,200  Level FlightAware
10:49PM -1.1880 -48.8380 297° West 310 357 10,200 6,364 Level FlightAware
10:49PM -1.0290 -49.1220 299° West 410 472 17,200 7,014 Climbing FlightAware
10:50PM -0.9890 -49.1950 299° West 413 475 18,500 1,800 Climbing FlightAware
10:50PM -0.9620 -49.2420 300° West 415 478 19,300 2,182 Climbing FlightAware
10:51PM -0.9290 -49.3020 299° West 399 459 20,900 2,053 Climbing FlightAware
10:52PM -0.8920 -49.3690 299° West 405 466 21,900 904 Climbing FlightAware
10:52PM -0.8610 -49.4260 299° West 400 460 22,000 79 Climbing FlightAware
10:53PM -0.8300 -49.4810 299° West 401 461 22,000  Level FlightAware
10:53PM -0.7960 -49.5430 299° West 404 465 22,000  Level FlightAware
10:54PM -0.7590 -49.6090 299° West 404 465 22,000  Level FlightAware
10:55PM -0.7350 -49.6520 299° West 401 461 22,000  Level FlightAware
10:55PM -0.6980 -49.7190 299° West 402 463 22,000  Level FlightAware
10:56PM -0.6710 -49.7680 299° West 404 465 22,000  Level FlightAware
10:56PM -0.6370 -49.8300 299° West 403 464 22,000  Level FlightAware
10:57PM -0.6040 -49.8890 299° West 403 464 22,000  Level FlightAware
10:58PM -0.5770 -49.9410 297° West 405 466 22,000  Level FlightAware
10:58PM -0.5500 -50.0200 289° West 404 465 22,000 -329 Level FlightAware
10:59PM -0.5330 -50.0700 289° West 401 461 21,600 -1,250 Descending FlightAware
10:59PM -0.5110 -50.1330 289° West 393 452 20,500 -1,613 Descending FlightAware
11:00PM -0.4800 -50.2240 289° West 381 438 19,100 -1,586 Descending FlightAware
11:01PM -0.4590 -50.2850 289° West 376 433 18,200 -1,853 Descending FlightAware
11:01PM -0.4410 -50.3380 289° West 381 438 17,000 -1,895 Descending FlightAware
11:02PM -0.4150 -50.4130 289° West 376 433 15,800 -1,579 Descending FlightAware
11:03PM -0.3960 -50.4670 289° West 372 428 15,000 -1,478 Descending FlightAware
11:03PM -0.3800 -50.5160 288° West 365 420 14,100 -1,479 Descending FlightAware
11:04PM -0.3580 -50.5790 289° West 360 414 13,200 -1,520 Descending FlightAware
11:05PM -0.3360 -50.6420 289° West 353 406 12,200 -1,520 Descending FlightAware
11:05PM -0.3170 -50.6960 289° West 345 397 11,300 -1,457 Descending FlightAware
11:06PM -0.3000 -50.7460 289° West 338 389 10,500 -1,029 Descending FlightAware
11:06PM -0.2820 -50.7980 289° West 320 368 10,100 -840 Descending FlightAware
11:07PM -0.2750 -50.8170 290° West 313 360 9,800 -1,317 Descending FlightAware
11:07PM -0.2630 -50.8520 289° West 307 353 9,200 -1,294 Descending FlightAware
11:07PM -0.2520 -50.8850 288° West 302 348 8,700 -1,227 Descending FlightAware
11:08PM -0.2430 -50.9110 289° West 301 346 8,300 -1,385 Descending FlightAware
11:08PM -0.2340 -50.9360 290° West 303 349 7,800 -1,467 Descending FlightAware
11:08PM -0.2220 -50.9710 289° West 300 345 7,200 -1,467 Descending FlightAware
11:09PM -0.2120 -50.9990 290° West 298 343 6,700 -1,500 Descending FlightAware
11:09PM -0.2040 -51.0240 288° West 296 341 6,200 -1,459 Descending FlightAware
11:09PM -0.1970 -51.0430 290° West 294 338 5,800 -1,371 Descending FlightAware
11:10PM -0.1890 -51.0670 288° West 291 335 5,400 -1,579 Descending FlightAware
11:10PM -0.1800 -51.0920 290° West 289 333 4,800 -1,543 Descending FlightAware
11:10PM -0.1720 -51.1140 290° West 288 331 4,500 -1,371 Descending FlightAware
11:11PM -0.1640 -51.1390 288° West 285 328 4,000 -1,459 Descending FlightAware
11:11PM -0.1570 -51.1590 289° West 284 327 3,600 -1,143 Descending FlightAware
11:11PM -0.1460 -51.1850 293° West 282 325 3,200 -774 Descending FlightAware
11:11PM -0.1400 -51.1940 304° West 278 320 3,200  Level FlightAware
11:12PM -0.1290 -51.2000 331° Northwest 264 304 3,200  Level FlightAware
11:12PM -0.1160 -51.2040 343° North 245 282 3,200  Level FlightAware
11:12PM -0.0960 -51.2080 349° North 227 261 3,200  Level FlightAware
11:12PM -0.0810 -51.2110 349° North 218 251 3,200  Level FlightAware
11:13PM -0.0570 -51.2170 346° North 195 224 3,200 -176 Level FlightAware
11:13PM -0.0510 -51.2170 360° North 184 212 3,100 -600 Descending FlightAware
11:13PM -0.0420 -51.2140 18° North 168 193 3,000 -600 Descending FlightAware
11:13PM -0.0380 -51.2090 51° Northeast 159 183 2,900 -720 Descending FlightAware
11:14PM -0.0310 -51.1990 55° Northeast 149 171 2,700 -686 Descending FlightAware
11:14PM -0.0240 -51.1870 60° Northeast 141 162 2,500 -750 Descending FlightAware
11:14PM -0.0170 -51.1760 58° Northeast 136 157 2,200 -750 Descending FlightAware
11:15PM -0.0100 -51.1660 55° Northeast 133 153 2,000 -600 Descending FlightAware
11:15PM -0.0040 -51.1560 59° Northeast 133 153 1,800 -667 Descending FlightAware
11:15PM 0.0020 -51.1470 56° Northeast 132 152 1,600 -857 Descending FlightAware
11:15PM 0.0090 -51.1380 52° Northeast 133 153 1,300 -828 Descending FlightAware
11:16PM 0.0110 -51.1340 63° Northeast 133 153 1,200 -585 Descending FlightAware
11:16PM 0.0210 -51.1180 58° Northeast 132 152 900 -643 Descending FlightAware
11:17PM 0.0300 -51.1050 55° Northeast 132 152 600 -667 Descending FlightAware
11:17PM 0.0360 -51.0950 59° Northeast 131 151 400 -800 Descending FlightAware
11:17PM 0.0410 -51.0880 54° Northeast 133 153 200 -1,200 Descending FlightAware
11:17PM 0.0490 -51.0750 58° Northeast 132 152 -462 Descending FlightAware